Columbia Airport, CA

9:25 AM PDT on October 14, 2019 (GMT -0700)
Columbia Airport

Weather History for KO22 - July, 2019

Change the Weather History Date:

Monday, July 15, 2019

  Actual Average (WUND) Record (WUND)
Temperature  
Mean Temperature 76 °F -  
Max Temperature 95 °F - - (-1)
Min Temperature 57 °F - - (-1)
Cooling Degree Days 11    
Growing Degree Days 26 (Base 50)    
Moisture  
Dew Point 46 °F    
Average Humidity 37    
Maximum Humidity 60    
Minimum Humidity 14    
Precipitation  
Precipitation 0.00 in - - ()
Sea Level Pressure  
Sea Level Pressure 30.02 in    
Wind  
Wind Speed 2 mph (WSW)    
Max Wind Speed 10 mph    
Max Gust Speed 13 mph    
Visibility 10 miles    
Events      
Averages and records for this station are not official NWS values.
T = Trace of Precipitation, MM = Missing Value Source: NWS Daily Summary

Daily Weather History Graph

Daily Weather History Graph

Search for Another Location

Airport or City:

Astronomy

Jul. 15, 2019 Rise Set
Actual Time 5:50 AM PDT 8:23 PM PDT
Civil Twilight 5:20 AM PDT 8:54 PM PDT
Nautical Twilight 4:42 AM PDT 9:32 PM PDT
Astronomical Twilight 3:59 AM PDT 10:14 PM PDT
Moon 7:45 PM PDT (7/15) 4:42 AM PDT (7/15)
Length of Visible Light 15h 34m
Length of Day
14h 32m
Waxing Gibbous, 99% of the Moon is Illuminated
Jul 15
Waxing Gibbous
Jul 16
Full
Jul 24
Last Quarter
Jul 31
New
Aug 7
First Quarter

Hourly Weather History & Observations

Time (PDT) Temp. Dew Point Humidity Pressure Visibility Wind Dir Wind Speed Gust Speed Precip Events Conditions
12:15 AM 62.6 °F 44.6 °F 52% 30.06 in 10.0 mi Calm Calm - N/A   Clear
12:35 AM 62.6 °F 44.6 °F 52% 30.05 in 10.0 mi Calm Calm - N/A   Clear
12:55 AM 60.8 °F 44.6 °F 55% 30.05 in 10.0 mi Calm Calm - N/A   Clear
1:15 AM 60.8 °F 44.6 °F 55% 30.05 in 10.0 mi Calm Calm - N/A   Clear
1:35 AM 60.8 °F 44.6 °F 55% 30.05 in 10.0 mi Calm Calm - N/A   Clear
1:55 AM 60.8 °F 44.6 °F 55% 30.04 in 10.0 mi Calm Calm - N/A   Clear
2:15 AM 60.8 °F 44.6 °F 55% 30.04 in 10.0 mi Calm Calm - N/A   Clear
2:35 AM 60.8 °F 44.6 °F 55% 30.04 in 10.0 mi Calm Calm - N/A   Clear
2:55 AM 60.8 °F 44.6 °F 55% 30.04 in 10.0 mi Calm Calm - N/A   Clear
3:15 AM 59.0 °F 44.6 °F 59% 30.03 in 10.0 mi Calm Calm - N/A   Clear
3:35 AM 59.0 °F 44.6 °F 59% 30.03 in 10.0 mi Calm Calm - N/A   Clear
3:55 AM 59.0 °F 42.8 °F 55% 30.03 in 10.0 mi Calm Calm - N/A   Clear
4:15 AM 59.0 °F 42.8 °F 55% 30.02 in 10.0 mi Calm Calm - N/A   Clear
4:35 AM 59.0 °F 42.8 °F 55% 30.02 in 10.0 mi Calm Calm - N/A   Clear
4:55 AM 59.0 °F 42.8 °F 55% 30.03 in 10.0 mi Calm Calm - N/A   Clear
5:15 AM 59.0 °F 42.8 °F 55% 30.03 in 10.0 mi Calm Calm - N/A   Clear
5:35 AM 57.2 °F 42.8 °F 59% 30.03 in 10.0 mi Calm Calm - N/A   Clear
5:55 AM 59.0 °F 42.8 °F 55% 30.03 in 10.0 mi Calm Calm - N/A   Clear
6:15 AM 59.0 °F 42.8 °F 55% 30.03 in 10.0 mi Calm Calm - N/A   Clear
6:35 AM 59.0 °F 42.8 °F 55% 30.03 in 10.0 mi Calm Calm - N/A   Clear
6:55 AM 60.8 °F 44.6 °F 55% 30.04 in 10.0 mi Calm Calm - N/A   Clear
7:15 AM 62.6 °F 48.2 °F 59% 30.04 in 10.0 mi Calm Calm - N/A   Clear
7:35 AM 66.2 °F 48.2 °F 52% 30.05 in 10.0 mi Calm Calm - N/A   Clear
7:55 AM 69.8 °F 50.0 °F 49% 30.05 in 10.0 mi Calm Calm - N/A   Clear
8:15 AM 75.2 °F 51.8 °F 44% 30.05 in 10.0 mi Calm Calm - N/A   Clear
8:35 AM 78.8 °F 46.4 °F 32% 30.05 in 10.0 mi Calm Calm - N/A   Clear
8:55 AM 80.6 °F 46.4 °F 30% 30.05 in 10.0 mi Calm Calm - N/A   Clear
9:15 AM 82.4 °F 42.8 °F 25% 30.04 in 10.0 mi Calm Calm - N/A   Clear
9:35 AM 86.0 °F 48.2 °F 27% 30.04 in 7.0 mi Calm Calm - N/A   Clear
9:55 AM 86.0 °F 42.8 °F 22% 30.04 in 10.0 mi Calm Calm - N/A   Clear
10:15 AM 86.0 °F 41.0 °F 20% 30.04 in 10.0 mi Calm Calm - N/A   Clear
10:35 AM 89.6 °F 37.4 °F 16% 30.05 in 10.0 mi WSW 4.6 mph - N/A   Clear
10:55 AM 89.6 °F 42.8 °F 20% 30.05 in 10.0 mi SW 4.6 mph - N/A   Clear
11:15 AM 91.4 °F 41.0 °F 17% 30.05 in 10.0 mi Calm Calm - N/A   Clear
11:35 AM 89.6 °F 42.8 °F 20% 30.05 in 9.0 mi SW 4.6 mph - N/A   Clear
11:55 AM 91.4 °F 41.0 °F 17% 30.05 in 6.0 mi WSW 5.8 mph - N/A   Haze
12:15 PM 91.4 °F 41.0 °F 17% 30.05 in 8.0 mi Variable 4.6 mph - N/A   Clear
12:35 PM 93.2 °F 42.8 °F 17% 30.05 in 10.0 mi SW 4.6 mph 11.5 mph N/A   Clear
12:55 PM 93.2 °F 46.4 °F 20% 30.05 in 10.0 mi Variable 5.8 mph - N/A   Clear
1:15 PM 91.4 °F 46.4 °F 21% 30.04 in 10.0 mi Variable 5.8 mph 11.5 mph N/A   Clear
1:35 PM 93.2 °F 37.4 °F 14% 30.04 in 10.0 mi WSW 5.8 mph - N/A   Clear
1:55 PM 93.2 °F 48.2 °F 21% 30.03 in 10.0 mi SW 5.8 mph - N/A   Clear
2:15 PM 95.0 °F 50.0 °F 22% 30.03 in 10.0 mi Variable 6.9 mph - N/A   Clear
2:35 PM 95.0 °F 50.0 °F 22% 30.02 in 10.0 mi WSW 8.1 mph - N/A   Clear
2:55 PM 95.0 °F 50.0 °F 22% 30.02 in 10.0 mi SW 10.4 mph - N/A   Clear
3:15 PM 93.2 °F 50.0 °F 23% 30.02 in 10.0 mi WSW 6.9 mph - N/A   Clear
3:35 PM 93.2 °F 50.0 °F 23% 30.01 in 10.0 mi SW 5.8 mph - N/A   Clear
3:55 PM 95.0 °F 50.0 °F 22% 30.00 in 10.0 mi SSW 6.9 mph - N/A   Clear
4:15 PM 95.0 °F 50.0 °F 22% 30.00 in 10.0 mi SW 8.1 mph - N/A   Clear
4:35 PM 93.2 °F 50.0 °F 23% 30.00 in 10.0 mi WSW 5.8 mph 12.7 mph N/A   Clear
4:55 PM 93.2 °F 48.2 °F 21% 29.99 in 9.0 mi Variable 5.8 mph - N/A   Clear
5:15 PM 93.2 °F 48.2 °F 21% 29.99 in 9.0 mi West 8.1 mph - N/A   Clear
5:35 PM 91.4 °F 48.2 °F 23% 29.98 in 10.0 mi West 6.9 mph 12.7 mph N/A   Clear
5:55 PM 91.4 °F 48.2 °F 23% 29.98 in 10.0 mi WSW 6.9 mph - N/A   Clear
6:15 PM 91.4 °F 48.2 °F 23% 29.98 in 10.0 mi WNW 6.9 mph - N/A   Clear
6:35 PM 89.6 °F 48.2 °F 24% 29.98 in 10.0 mi Variable 5.8 mph - N/A   Clear
6:55 PM 87.8 °F 46.4 °F 24% 29.98 in 10.0 mi West 6.9 mph - N/A   Clear
7:35 PM 86.0 °F 46.4 °F 25% 29.98 in 10.0 mi West 5.8 mph - N/A   Clear
7:55 PM 84.2 °F 48.2 °F 29% 29.98 in 10.0 mi Variable 4.6 mph - N/A   Clear
8:15 PM 82.4 °F 48.2 °F 30% 29.98 in 10.0 mi WNW 4.6 mph - N/A   Clear
8:35 PM 78.8 °F 48.2 °F 34% 29.97 in 10.0 mi Variable 4.6 mph - N/A   Clear
8:55 PM 77.0 °F 48.2 °F 36% 29.97 in 10.0 mi WNW 4.6 mph - N/A   Clear
9:15 PM 75.2 °F 50.0 °F 41% 29.98 in 10.0 mi Calm Calm - N/A   Clear
9:35 PM 75.2 °F 50.0 °F 41% 29.98 in 10.0 mi Calm Calm - N/A   Clear
9:55 PM 73.4 °F 50.0 °F 44% 29.98 in 10.0 mi Calm Calm - N/A   Clear
10:15 PM 71.6 °F 50.0 °F 46% 29.98 in 10.0 mi Variable 5.8 mph - N/A   Clear
10:35 PM 71.6 °F 50.0 °F 46% 29.98 in 10.0 mi Calm Calm - N/A   Clear
10:55 PM 69.8 °F 51.8 °F 53% 29.98 in 10.0 mi Calm Calm - N/A   Clear
11:15 PM 68.0 °F 51.8 °F 56% 29.98 in 10.0 mi Calm Calm - N/A   Clear
11:35 PM 66.2 °F 51.8 °F 60% 29.98 in 10.0 mi Calm Calm - N/A   Clear
11:55 PM 66.2 °F 51.8 °F 60% 29.98 in 10.0 mi Calm Calm - N/A   Clear